Weather History for Cape Girardeau, MO

Change the Weather History Date:

Saturday, November 10, 2012

  Actual Average Record
Temperature  
Mean Temperature 62 °F 49 °F  
Max Temperature 72 °F 60 °F 76 °F (2010)
Min Temperature 52 °F 38 °F 20 °F (1991)
Degree Days  
Heating Degree Days 3 16  
Month to date heating degree days 167 142  
Since 1 July heating degree days 512 445  
Cooling Degree Days 0 0  
Month to date cooling degree days 0 0  
Year to date cooling degree days 1784 1451  
Growing Degree Days 12 (Base 50)    
Moisture  
Dew Point 48 °F    
Average Humidity 65    
Maximum Humidity 77    
Minimum Humidity 52    
Precipitation  
Precipitation 0.00 in 0.14 in 0.89 in (1966)
Month to date precipitation 0.01 1.34  
Year to date precipitation 23.97 39.46  
Sea Level Pressure  
Sea Level Pressure 30.10 in    
Wind  
Wind Speed 13 mph (South)    
Max Wind Speed 24 mph    
Max Gust Speed 31 mph    
Visibility 10 miles    
Events      
T = Trace of Precipitation, MM = Missing Value Source: NWS Daily Summary

Daily Weather History Graph

Daily Weather History Graph

Search for Another Location

Airport:

Trip Planner

Search our weather history database for the weather conditions in past years. The results will help you decide how hot, cold, wet, or windy it might be!

Date:

Astronomy

Nov. 10, 2012 Rise Set
Actual Time 6:32 AM CST 4:51 PM CST
Civil Twilight 6:05 AM CST 5:18 PM CST
Nautical Twilight 5:33 AM CST 5:50 PM CST
Astronomical Twilight 5:03 AM CST 6:20 PM CST
Moon 2:42 AM CST (11/10) 2:34 PM CST (11/10)
Length of Visible Light 11h 13m
Length of Day
10h 18m
Waning Crescent, 14% of the Moon is Illuminated
Nov 10
Waning Crescent
Nov 13
New
Nov 20
First Quarter
Nov 28
Full
Dec 6
Last Quarter

Hourly Weather History & Observations

Time (CST) Temp. Dew Point Humidity Pressure Visibility Wind Dir Wind Speed Gust Speed Precip Events Conditions
12:53 AM 55.0 °F 42.1 °F 62% 30.09 in 10.0 mi SSW 9.2 mph - N/A   Clear
1:53 AM 53.1 °F 42.1 °F 66% 30.09 in 10.0 mi SSW 8.1 mph - N/A   Clear
2:53 AM 52.0 °F 42.1 °F 69% 30.10 in 10.0 mi SSW 4.6 mph - N/A   Clear
3:53 AM 53.1 °F 42.1 °F 66% 30.09 in 10.0 mi South 11.5 mph - N/A   Clear
4:53 AM 53.1 °F 43.0 °F 69% 30.11 in 10.0 mi South 8.1 mph - N/A   Clear
5:53 AM 52.0 °F 44.1 °F 74% 30.11 in 10.0 mi South 10.4 mph - N/A   Clear
6:53 AM 53.1 °F 46.0 °F 77% 30.12 in 10.0 mi South 10.4 mph - N/A   Clear
7:53 AM 55.9 °F 48.0 °F 75% 30.14 in 10.0 mi South 13.8 mph 20.7 mph N/A   Clear
8:53 AM 59.0 °F 50.0 °F 72% 30.15 in 10.0 mi SSW 12.7 mph - N/A   Clear
9:20 AM 59.0 °F 51.8 °F 77% 30.16 in 10.0 mi SSW 16.1 mph - N/A   Mostly Cloudy
9:53 AM 60.1 °F 52.0 °F 75% 30.16 in 10.0 mi SSW 16.1 mph 24.2 mph N/A   Overcast
10:25 AM 62.6 °F 53.6 °F 72% 30.15 in 10.0 mi South 16.1 mph - N/A   Scattered Clouds
10:53 AM 64.9 °F 54.0 °F 68% 30.13 in 10.0 mi SSW 17.3 mph 27.6 mph N/A   Clear
11:53 AM 69.1 °F 55.0 °F 61% 30.10 in 10.0 mi SSW 19.6 mph 29.9 mph N/A   Clear
12:53 PM 71.1 °F 55.0 °F 57% 30.08 in 10.0 mi SSW 17.3 mph 28.8 mph N/A   Clear
1:53 PM 71.1 °F 55.0 °F 57% 30.06 in 10.0 mi South 17.3 mph 26.5 mph N/A   Clear
2:53 PM 72.0 °F 54.0 °F 53% 30.05 in 10.0 mi SSW 16.1 mph 25.3 mph N/A   Clear
3:53 PM 70.0 °F 53.1 °F 55% 30.05 in 10.0 mi South 18.4 mph 24.2 mph N/A   Clear
4:53 PM 66.0 °F 48.0 °F 52% 30.05 in 10.0 mi South 10.4 mph - N/A   Clear
5:53 PM 62.1 °F 46.0 °F 56% 30.08 in 10.0 mi South 6.9 mph - N/A   Clear
6:53 PM 61.0 °F 46.0 °F 58% 30.09 in 10.0 mi South 8.1 mph - N/A   Clear
7:53 PM 61.0 °F 46.0 °F 58% 30.09 in 10.0 mi South 10.4 mph - N/A   Clear
8:53 PM 61.0 °F 45.0 °F 56% 30.08 in 10.0 mi South 12.7 mph - N/A   Clear
9:53 PM 60.8 °F 46.4 °F 59% 30.08 in 10.0 mi South 15.0 mph - N/A   Clear
10:53 PM 60.1 °F 48.0 °F 64% 30.07 in 10.0 mi South 10.4 mph - N/A   Clear
11:53 PM 61.0 °F 48.0 °F 62% 30.06 in 10.0 mi South 15.0 mph 23.0 mph N/A   Clear